| time (UTC) | temp F | wind direction | speed knots | gust knots | rain 1hr in | rain 24hr in | rain mn in | humidity % | barometer mb |
| 20260506120643 | 79 | 76 | 0.0 | 0.0 | 0.00 | 0.00 | 0.00 | 31 | 1008.9 |
| 20260506115142 | 79 | 76 | 0.0 | 0.0 | 0.00 | 0.00 | 0.00 | 31 | 1008.7 |
| 20260506113641 | 79 | 76 | 0.0 | 0.0 | 0.00 | 0.00 | 0.00 | 31 | 1008.9 |
| 20260506112140 | 79 | 76 | 0.0 | 0.0 | 0.00 | 0.00 | 0.00 | 31 | 1008.7 |
| 20260506110639 | 79 | 192 | 0.0 | 0.9 | 0.00 | 0.00 | 0.00 | 30 | 1008.8 |
| 20260506105137 | 82 | 132 | 0.9 | 0.9 | 0.00 | 0.00 | 0.00 | 26 | 1008.7 |
| 20260506103636 | 82 | 222 | 0.0 | 0.0 | 0.00 | 0.00 | 0.00 | 27 | 1008.8 |
| 20260506102135 | 82 | 222 | 1.7 | 2.6 | 0.00 | 0.00 | 0.00 | 27 | 1008.7 |
| 20260506100634 | 83 | 192 | 2.6 | 2.6 | 0.00 | 0.00 | 0.00 | 27 | 1008.6 |
| 20260506095132 | 78 | 82 | 0.9 | 0.9 | 0.00 | 0.00 | 0.00 | 31 | 1008.7 |
| 20260506093632 | 74 | 104 | 0.0 | 0.0 | 0.00 | 0.00 | 0.00 | 36 | 1008.8 |
| 20260506092130 | 74 | 104 | 0.0 | 0.0 | 0.00 | 0.00 | 0.00 | 36 | 1009.0 |
| 20260506090629 | 74 | 104 | 1.7 | 1.7 | 0.00 | 0.00 | 0.00 | 36 | 1009.1 |
| 20260506085129 | 73 | 216 | 1.7 | 1.7 | 0.00 | 0.00 | 0.00 | 36 | 1009.0 |
| 20260506083628 | 72 | 131 | 1.7 | 1.7 | 0.00 | 0.00 | 0.00 | 38 | 1008.9 |
| 20260506082127 | 72 | 342 | 1.7 | 1.7 | 0.00 | 0.00 | 0.00 | 38 | 1008.8 |
| 20260506080626 | 71 | 198 | 1.7 | 1.7 | 0.00 | 0.00 | 0.00 | 38 | 1008.8 |
| 20260506072123 | 69 | 76 | 0.9 | 1.7 | 0.00 | 0.00 | 0.00 | 39 | 1008.7 |
| 20260506070622 | 69 | 175 | 0.0 | 0.0 | 0.00 | 0.00 | 0.00 | 40 | 1008.9 |
| 20260506062118 | 66 | 53 | 0.0 | 0.0 | 0.00 | 0.00 | 0.00 | 45 | 1008.5 |
| 20260506060617 | 66 | 53 | 0.0 | 0.0 | 0.00 | 0.00 | 0.00 | 45 | 1008.5 |
| 20260506050612 | 63 | 102 | 0.0 | 0.0 | 0.00 | 0.00 | 0.00 | 48 | 1008.5 |
| 20260506045111 | 63 | 102 | 0.0 | 0.0 | 0.00 | 0.00 | 0.00 | 48 | 1008.7 |
| 20260506043609 | 62 | 126 | 0.0 | 0.0 | 0.00 | 0.00 | 0.00 | 47 | 1008.8 |
| 20260506042108 | 61 | 246 | 0.9 | 0.9 | 0.00 | 0.00 | 0.00 | 44 | 1008.8 |
| 20260506040608 | 61 | 156 | 0.0 | 0.0 | 0.00 | 0.00 | 0.00 | 45 | 1008.8 |
| 20260506035107 | 60 | 117 | 0.0 | 0.0 | 0.00 | 0.00 | 0.00 | 45 | 1008.7 |
| 20260506033605 | 60 | 117 | 0.0 | 0.0 | 0.00 | 0.00 | 0.00 | 45 | 1008.7 |
| 20260506032104 | 60 | 354 | 0.0 | 0.0 | 0.00 | 0.00 | 0.00 | 44 | 1008.7 |
| 20260506030603 | 60 | 119 | 0.0 | 0.0 | 0.00 | 0.00 | 0.00 | 43 | 1008.8 |
| 20260506025101 | 60 | 119 | 0.0 | 0.0 | 0.00 | 0.00 | 0.00 | 43 | 1008.7 |
| 20260506023601 | 60 | 119 | 0.0 | 0.0 | 0.00 | 0.00 | 0.00 | 43 | 1008.9 |
| 20260506022059 | 60 | 119 | 0.0 | 0.0 | 0.00 | 0.00 | 0.00 | 43 | 1008.9 |
| 20260506020558 | 60 | 119 | 0.0 | 0.0 | 0.00 | 0.00 | 0.00 | 43 | 1009.0 |
| 20260506015057 | 60 | 119 | 0.0 | 0.0 | 0.00 | 0.00 | 0.00 | 43 | 1009.0 |
| 20260506013556 | 60 | 119 | 0.0 | 0.0 | 0.00 | 0.00 | 0.00 | 43 | 1009.1 |
| 20260506012055 | 62 | 129 | 0.0 | 0.0 | 0.00 | 0.00 | 0.00 | 41 | 1009.1 |
| 20260506010553 | 62 | 129 | 0.0 | 0.0 | 0.00 | 0.00 | 0.00 | 41 | 1009.1 |
| 20260506005053 | 62 | 129 | 0.0 | 0.0 | 0.00 | 0.00 | 0.00 | 41 | 1009.1 |
| 20260506003552 | 62 | 129 | 0.0 | 0.0 | 0.00 | 0.00 | 0.00 | 41 | 1009.1 |
| 20260506002050 | 62 | 129 | 0.0 | 0.0 | 0.00 | 0.00 | 0.00 | 41 | 1009.1 |
| 20260506000549 | 62 | 129 | 0.0 | 0.0 | 0.00 | 0.00 | 0.00 | 41 | 1009.2 |
| 20260505235048 | 62 | 129 | 0.0 | 0.0 | 0.00 | 0.00 | 0.00 | 41 | 1009.2 |
| 20260505233547 | 62 | 129 | 0.0 | 0.0 | 0.00 | 0.00 | 0.00 | 41 | 1009.2 |
| 20260505232046 | 62 | 129 | 0.0 | 0.0 | 0.00 | 0.00 | 0.00 | 41 | 1009.3 |
| 20260505230545 | 62 | 129 | 0.0 | 0.0 | 0.00 | 0.00 | 0.00 | 41 | 1009.4 |
| 20260505225044 | 64 | 144 | 0.0 | 0.0 | 0.00 | 0.00 | 0.00 | 40 | 1009.5 |
| 20260505223542 | 64 | 144 | 0.0 | 0.0 | 0.00 | 0.00 | 0.00 | 40 | 1009.5 |
| 20260505222041 | 64 | 144 | 0.0 | 0.0 | 0.00 | 0.00 | 0.00 | 40 | 1009.6 |
| 20260505220540 | 64 | 144 | 0.0 | 0.0 | 0.00 | 0.00 | 0.00 | 40 | 1009.6 |
| 20260505215039 | 64 | 144 | 0.0 | 0.0 | 0.00 | 0.00 | 0.00 | 40 | 1009.7 |
| 20260505213538 | 64 | 144 | 0.0 | 0.0 | 0.00 | 0.00 | 0.00 | 40 | 1009.9 |
| 20260505212037 | 64 | 144 | 0.0 | 0.0 | 0.00 | 0.00 | 0.00 | 40 | 1009.9 |
| 20260505210536 | 64 | 144 | 0.0 | 0.0 | 0.00 | 0.00 | 0.00 | 40 | 1009.9 |
| 20260505205035 | 64 | 156 | 0.0 | 0.0 | 0.00 | 0.00 | 0.00 | 40 | 1009.9 |
| 20260505203535 | 65 | 153 | 0.0 | 0.0 | 0.00 | 0.00 | 0.00 | 40 | 1009.9 |
| 20260505202034 | 66 | 118 | 0.0 | 0.0 | 0.00 | 0.00 | 0.00 | 39 | 1009.8 |
| 20260505200532 | 67 | 120 | 0.0 | 0.0 | 0.00 | 0.00 | 0.00 | 37 | 1009.8 |
| 20260505195032 | 67 | 120 | 0.0 | 0.0 | 0.00 | 0.00 | 0.00 | 37 | 1009.7 |
| 20260505193530 | 68 | 300 | 0.0 | 0.0 | 0.00 | 0.00 | 0.00 | 35 | 1009.7 |
| 20260505192030 | 68 | 312 | 0.0 | 0.0 | 0.00 | 0.00 | 0.00 | 35 | 1009.6 |
| 20260505190528 | 69 | 124 | 0.0 | 0.0 | 0.00 | 0.00 | 0.00 | 34 | 1009.5 |
| 20260505185028 | 72 | 102 | 0.0 | 0.0 | 0.00 | 0.00 | 0.00 | 31 | 1009.4 |
| 20260505183527 | 72 | 102 | 0.0 | 0.0 | 0.00 | 0.00 | 0.00 | 31 | 1009.4 |
| 20260505182026 | 72 | 102 | 0.9 | 0.9 | 0.00 | 0.00 | 0.00 | 31 | 1009.4 |
| 20260505180525 | 72 | 109 | 0.0 | 0.0 | 0.00 | 0.00 | 0.00 | 31 | 1009.2 |
| 20260505175025 | 75 | 144 | 0.0 | 0.0 | 0.00 | 0.00 | 0.00 | 28 | 1009.2 |
| 20260505173524 | 75 | 144 | 0.0 | 0.0 | 0.00 | 0.00 | 0.00 | 28 | 1009.2 |
| 20260505172023 | 75 | 144 | 1.7 | 1.7 | 0.00 | 0.00 | 0.00 | 28 | 1009.2 |
| 20260505170521 | 77 | 116 | 0.0 | 0.0 | 0.00 | 0.00 | 0.00 | 26 | 1009.2 |
| 20260505165020 | 78 | 138 | 0.9 | 1.7 | 0.00 | 0.00 | 0.00 | 25 | 1009.2 |
| 20260505163519 | 80 | 154 | 1.7 | 1.7 | 0.00 | 0.00 | 0.00 | 23 | 1009.3 |
| 20260505162018 | 82 | 264 | 0.0 | 0.0 | 0.00 | 0.00 | 0.00 | 18 | 1009.1 |
| 20260505160517 | 82 | 264 | 0.0 | 0.0 | 0.00 | 0.00 | 0.00 | 18 | 1009.2 |
| 20260505152014 | 82 | 264 | 0.9 | 1.7 | 0.00 | 0.00 | 0.00 | 18 | 1009.4 |
| 20260505150513 | 87 | 234 | 0.0 | 0.0 | 0.00 | 0.00 | 0.00 | 16 | 1009.4 |
| 20260505140509 | 89 | 138 | 0.0 | 0.0 | 0.00 | 0.00 | 0.00 | 16 | 1009.7 |
| 20260505125004 | 92 | 66 | 1.7 | 3.5 | 0.00 | 0.00 | 0.00 | 16 | 1010.6 |
| 20260505123503 | 88 | 90 | 0.9 | 1.7 | 0.00 | 0.00 | 0.00 | 17 | 1010.9 |
| 20260505122002 | 90 | 228 | 0.0 | 0.0 | 0.00 | 0.00 | 0.00 | 15 | 1011.1 |